Location: *
(42.0175°N, 9.4056°E)
Time: 16:33:32
(UTC+00:00)

Cosmos 1656 - Pass Details

Date: 25 August 2019
Orbit: 798 x 849 km, 71.1° (Epoch: 16 October)

Event Time Altitude Azimuth Distance (km) Brightness Sun altitude
Rises 19:04:45 0° 340° (NNW) 3,414 7.6 -10.7°
Reaches altitude 10° 19:07:19 10° 347° (NNW) 2,471 6.7 -11.1°
Maximum altitude 19:12:47 47° 60° (ENE) 1,104 4.1 -12.0°
Enters shadow 19:16:52 17° 128° (SE) 1,984 5.0 -12.7°
